GW1438 Weather Reports


time (UTC)temp
F
wind
direction
speed
knots
gust
knots
rain 1hr
in
rain 24hr
in
rain mn
in
humidity
%
barometer
mb
20260504110323 49 212 0.0 0.0 0.00 0.00 0.00 67 1016.6
20260504100240 48 212 0.0 0.9 0.00 0.00 0.00 68 1016.8
20260504081633 48 215 0.0 0.0 0.00 0.00 0.00 70 1017.1
20260504081130 47 226 0.0 0.0 0.00 0.00 0.00 69 1017.1
20260504080626 48 213 0.0 0.9 0.00 0.00 0.00 72 1017.0
20260504080123 48 222 0.0 0.0 0.00 0.00 0.00 72 1017.1
20260504050439 48 199 0.0 0.0 0.00 0.00 0.00 53 1017.4
20260504045936 48 218 0.0 0.0 0.00 0.00 0.00 55 1017.3
20260504045432 47 220 0.0 0.0 0.00 0.00 0.00 58 1017.4
20260504044928 46 217 0.0 0.0 0.00 0.00 0.00 59 1017.3
20260504044426 46 211 0.0 0.0 0.00 0.00 0.00 61 1017.5
20260504043923 46 209 0.0 0.0 0.00 0.00 0.00 60 1017.5
20260504043420 46 218 0.0 0.0 0.00 0.00 0.00 60 1017.2
20260504042917 45 219 0.0 0.0 0.00 0.00 0.00 61 1017.2
20260504042414 46 219 0.0 0.0 0.00 0.00 0.00 61 1017.3
20260504041910 46 217 0.0 0.0 0.00 0.00 0.00 62 1017.3
20260504041406 46 219 0.0 0.0 0.00 0.00 0.00 62 1017.3
20260504040903 46 219 0.0 0.0 0.00 0.00 0.00 63 1017.2
20260504040400 46 219 0.0 0.0 0.00 0.00 0.00 62 1017.4
20260504035856 46 219 0.0 0.0 0.00 0.00 0.00 63 1017.4
20260504035354 46 219 0.0 0.0 0.00 0.00 0.00 63 1017.4
20260504034850 46 213 0.0 0.0 0.00 0.00 0.00 62 1017.3
20260504034348 46 220 0.0 0.0 0.00 0.00 0.00 62 1017.3
20260504033844 46 224 0.0 0.0 0.00 0.00 0.00 63 1017.3
20260504033343 46 217 0.0 0.0 0.00 0.00 0.00 62 1017.1
20260504032839 46 211 0.0 0.9 0.00 0.00 0.00 63 1017.1
20260504032336 45 219 0.0 0.0 0.00 0.00 0.00 64 1017.0
20260504031833 45 219 0.0 0.0 0.00 0.00 0.00 65 1017.0
20260504031330 44 224 0.0 0.0 0.00 0.00 0.00 68 1017.1
20260504030826 44 218 0.0 0.0 0.00 0.00 0.00 68 1016.7
20260504030324 44 223 0.0 0.0 0.00 0.00 0.00 69 1016.9
20260504025820 44 226 0.0 0.0 0.00 0.00 0.00 69 1016.8
20260504025317 44 225 0.0 0.0 0.00 0.00 0.00 69 1016.9
20260504024814 44 226 0.0 0.0 0.00 0.00 0.00 70 1016.9
20260504024310 44 225 0.0 0.0 0.00 0.00 0.00 70 1016.9
20260504023807 44 220 0.0 0.0 0.00 0.00 0.00 70 1016.7
20260504023303 44 219 0.0 0.0 0.00 0.00 0.00 71 1016.7
20260504022759 45 217 0.0 0.0 0.00 0.00 0.00 70 1016.8
20260504022256 45 218 0.0 0.0 0.00 0.00 0.00 69 1017.0
20260504021753 45 218 0.0 0.0 0.00 0.00 0.00 68 1016.6
20260504021250 46 221 0.0 0.0 0.00 0.00 0.00 67 1016.9
20260504020747 46 222 0.0 0.0 0.00 0.00 0.00 65 1016.8
20260504020243 46 223 0.0 0.0 0.00 0.00 0.00 65 1016.7
20260504015739 46 221 0.0 0.0 0.00 0.00 0.00 65 1016.8
20260504015236 46 221 0.0 0.0 0.00 0.00 0.00 65 1016.8
20260504014732 46 220 0.0 0.0 0.00 0.00 0.00 65 1016.6
20260504014229 47 220 0.0 0.0 0.00 0.00 0.00 63 1016.5
20260504013727 47 222 0.0 0.0 0.00 0.00 0.00 63 1016.7
20260504013224 47 222 0.0 0.0 0.00 0.00 0.00 62 1016.8
20260504012720 48 222 0.0 0.0 0.00 0.00 0.00 61 1016.5
20260504012218 48 224 0.0 0.0 0.00 0.00 0.00 60 1016.5
20260504011715 48 224 0.0 0.0 0.00 0.00 0.00 59 1016.5
20260504011212 48 224 0.0 0.0 0.00 0.00 0.00 59 1016.6
20260504010708 48 220 0.0 0.0 0.00 0.00 0.00 58 1016.7
20260504010203 49 220 0.0 0.0 0.00 0.00 0.00 58 1016.6
20260504005700 49 220 0.0 0.0 0.00 0.00 0.00 55 1016.6
20260504005157 49 219 0.0 0.0 0.00 0.00 0.00 54 1016.4
20260504004655 50 219 0.0 0.0 0.00 0.00 0.00 54 1016.3
20260504004152 50 218 0.0 0.0 0.00 0.00 0.00 53 1016.4
20260504003648 51 217 0.0 0.0 0.00 0.00 0.00 51 1016.0
20260504003145 51 217 0.0 0.0 0.00 0.00 0.00 50 1016.1
20260504002642 52 217 0.0 0.0 0.00 0.00 0.00 51 1016.0
20260504002139 52 223 0.0 0.0 0.00 0.00 0.00 46 1016.2
20260504001637 53 220 0.0 0.0 0.00 0.00 0.00 46 1016.1
20260504001133 53 220 0.0 0.0 0.00 0.00 0.00 45 1016.2
20260504000630 54 220 0.0 0.0 0.00 0.00 0.00 45 1016.0
20260504000128 55 220 0.0 0.0 0.00 0.00 0.00 44 1015.8
20260503235626 55 220 0.0 0.0 0.00 0.00 0.00 41 1015.8
20260503235122 56 215 0.0 0.0 0.00 0.00 0.00 41 1016.0
20260503234620 57 210 0.0 0.0 0.00 0.00 0.00 39 1015.9
20260503234118 58 220 0.0 0.0 0.00 0.00 0.00 34 1015.7
20260503233615 58 234 0.9 0.9 0.00 0.00 0.00 34 1015.7
20260503233110 58 236 0.0 0.0 0.00 0.00 0.00 33 1015.9
20260503232608 59 234 0.0 0.9 0.00 0.00 0.00 33 1015.5
20260503232105 59 235 0.0 0.0 0.00 0.00 0.00 34 1015.7
20260503231603 59 229 0.0 0.0 0.00 0.00 0.00 35 1015.6
20260503231059 59 241 0.0 0.9 0.00 0.00 0.00 34 1015.8
20260503230556 59 220 0.0 0.0 0.00 0.00 0.00 32 1015.5
20260503230053 59 234 0.9 0.9 0.00 0.00 0.00 34 1015.5
20260503225550 60 235 0.0 0.0 0.00 0.00 0.00 33 1015.6
20260503225045 60 204 0.0 0.0 0.00 0.00 0.00 32 1015.6
20260503224543 60 215 0.0 0.0 0.00 0.00 0.00 33 1015.6
20260503224040 60 236 0.9 1.7 0.00 0.00 0.00 32 1015.6
20260503223539 60 222 0.9 0.9 0.00 0.00 0.00 31 1015.6
20260503223033 60 156 0.9 1.7 0.00 0.00 0.00 31 1015.7
20260503222532 61 237 0.9 0.9 0.00 0.00 0.00 30 1015.7
20260503222030 62 239 1.7 2.6 0.00 0.00 0.00 29 1016.0
20260503221528 63 326 1.7 1.7 0.00 0.00 0.00 28 1015.8
20260503221025 62 16 1.7 2.6 0.00 0.00 0.00 29 1015.9
20260503220521 63 255 0.9 0.9 0.00 0.00 0.00 28 1015.8
20260503220018 63 239 0.0 0.0 0.00 0.00 0.00 30 1015.6
20260503215515 64 246 0.0 0.9 0.00 0.00 0.00 28 1015.6
20260503215012 63 242 0.9 0.9 0.00 0.00 0.00 29 1015.7
20260503214510 63 234 0.9 1.7 0.00 0.00 0.00 29 1015.8
20260503214007 62 245 0.0 0.9 0.00 0.00 0.00 30 1016.0
20260503213505 64 2 1.7 2.6 0.00 0.00 0.00 30 1015.8
20260503213001 63 233 0.0 0.0 0.00 0.00 0.00 32 1015.8
20260503212459 63 311 0.9 1.7 0.00 0.00 0.00 28 1016.0
20260503211956 62 241 0.9 1.7 0.00 0.00 0.00 31 1015.8
20260503211453 62 234 1.7 2.6 0.00 0.00 0.00 31 1015.8
20260503210949 62 240 0.0 0.9 0.00 0.00 0.00 31 1015.7
20260503210445 61 245 0.9 0.9 0.00 0.00 0.00 31 1015.9
20260503205940 62 258 1.7 1.7 0.00 0.00 0.00 29 1015.9
20260503205437 60 248 0.0 0.9 0.00 0.00 0.00 33 1015.8
20260503204933 60 269 1.7 1.7 0.00 0.00 0.00 30 1015.7
20260503204431 61 317 0.9 0.9 0.00 0.00 0.00 31 1016.0
20260503203928 60 252 0.0 0.9 0.00 0.00 0.00 32 1015.7
20260503203425 60 239 0.0 0.9 0.00 0.00 0.00 33 1015.8
20260503202922 62 241 2.6 4.3 0.00 0.00 0.00 30 1015.8
20260503202420 61 256 1.7 1.7 0.00 0.00 0.00 30 1015.8
20260503201919 61 228 1.7 1.7 0.00 0.00 0.00 31 1015.9
20260503201415 60 241 0.9 0.9 0.00 0.00 0.00 31 1016.1
20260503200913 60 250 2.6 2.6 0.00 0.00 0.00 35 1016.2
20260503200409 60 261 0.9 1.7 0.00 0.00 0.00 34 1016.0
20260503195906 60 278 0.9 1.7 0.00 0.00 0.00 33 1016.3
20260503195403 60 204 2.6 4.3 0.00 0.00 0.00 31 1016.3
20260503194859 61 281 0.9 1.7 0.00 0.00 0.00 31 1016.4
20260503194356 60 358 2.6 2.6 0.00 0.00 0.00 35 1016.4
20260503193852 60 254 0.9 0.9 0.00 0.00 0.00 32 1016.6
20260503193347 60 142 2.6 2.6 0.00 0.00 0.00 34 1016.7
20260503192843 60 178 1.7 1.7 0.00 0.00 0.00 34 1016.7
20260503192339 59 236 2.6 4.3 0.00 0.00 0.00 35 1016.7
20260503191836 59 232 0.9 0.9 0.00 0.00 0.00 34 1016.7
20260503191333 59 39 2.6 2.6 0.00 0.00 0.00 35 1017.0
20260503190829 60 285 1.7 2.6 0.00 0.00 0.00 35 1016.9
20260503190327 60 280 0.9 1.7 0.00 0.00 0.00 43 1017.2
20260503185824 59 191 2.6 2.6 0.00 0.00 0.00 37 1017.1
20260503185319 58 250 0.9 0.9 0.00 0.00 0.00 34 1017.1
20260503184814 59 280 1.7 2.6 0.00 0.00 0.00 34 1017.3
20260503184311 59 169 1.7 1.7 0.00 0.00 0.00 38 1017.3
20260503183806 59 25 2.6 2.6 0.00 0.00 0.00 37 1017.4
20260503183304 59 251 1.7 1.7 0.00 0.00 0.00 38 1017.4
20260503182801 59 261 0.9 0.9 0.00 0.00 0.00 37 1017.2
20260503182300 58 273 1.7 1.7 0.00 0.00 0.00 39 1017.6
20260503181756 58 256 0.9 1.7 0.00 0.00 0.00 38 1017.4
20260503181254 57 295 1.7 2.6 0.00 0.00 0.00 36 1017.6
20260503180750 58 292 2.6 2.6 0.00 0.00 0.00 36 1017.4
20260503180248 57 274 0.9 1.7 0.00 0.00 0.00 38 1017.5
20260503175744 57 249 0.0 0.9 0.00 0.00 0.00 38 1017.7
20260503175243 55 249 1.7 2.6 0.00 0.00 0.00 39 1017.7
20260503174738 57 287 2.6 2.6 0.00 0.00 0.00 37 1017.5
20260503174236 58 330 2.6 2.6 0.00 0.00 0.00 36 1017.6
20260503173730 57 263 0.9 0.9 0.00 0.00 0.00 40 1017.7
20260503173227 57 261 2.6 2.6 0.00 0.00 0.00 36 1017.5
20260503172724 57 240 0.9 0.9 0.00 0.00 0.00 38 1017.9
20260503172221 57 308 1.7 2.6 0.00 0.00 0.00 40 1017.8
20260503171717 56 188 0.9 1.7 0.00 0.00 0.00 40 1018.0
20260503171215 56 294 0.9 0.9 0.00 0.00 0.00 37 1017.8
20260503170712 55 333 0.9 0.9 0.00 0.00 0.00 39 1017.7
20260503170209 56 241 0.9 0.9 0.00 0.00 0.00 41 1017.9
20260503160130 53 307 2.6 4.3 0.00 0.00 0.00 41 1018.7
20260503150600 53 216 0.0 0.9 0.00 0.00 0.00 45 1018.6
20260503130949 46 222 0.9 0.9 0.00 0.00 0.00 55 1018.7
20260503130447 46 273 0.9 1.7 0.00 0.00 0.00 54 1018.9